Volver al catálogo

CZ-6A DEB

ActivoPO
NORAD 54902·DEBRIS·🇨🇳 China

Lanzado Nov 11, 2022 desde Taiyuan Satellite Launch Center

Loading…

Próximos Pases (próximas 24 horas)

TLE

ActualizadoSource: Space-Track

Época: Sep 13, 2026, 17:48 UTC

1 54902U 22151QP  26256.74212781  .00040416  00000-0  27153-2 0  9999
2 54902  98.6040 344.1463 0028751 300.6364  59.2026 15.06317491204073

Sigue CZ-6A DEB en tiempo real con AllMySat

Download on the App Store